sat.trackr.live / text

‹ back to catalog

IRIDIUM 177

NORAD 56727 · 2023-068T

PAYLOAD ACTIVE UNKNOWN

§ Identity

Operator
Country
US
Launch date
2023-05-20
Launch site
AFWTR
Launch vehicle
Mass (kg)
RCS (m²)

Purposes: comms

External: N2YO · Heavens-Above · Gunter

§ Orbital elements

Epoch: 2026-05-25T01:37:20.593344Z

Period
97.28 min
Inclination
86.1961°
Eccentricity
0.0002574
Mean motion
14.80240172 rev/d
Perigee alt
626.8 km
Apogee alt
630.4 km
Semi-major
7,006.7 km
B*
9.7837e-5
RAAN
339.7755°
Arg perigee
85.8147°
Mean anomaly
274.3368°
Rev number
16,294

§ Raw data

IRIDIUM 1771 56727U 23068T   26145.06759946  .00000770  00000+0  97837-4 0  99912 56727  86.1961 339.7755 0002574  85.8147 274.3368 14.80240172162944

JSON: /api/v1/satellites/56727 · /tle

For live sub-satellite position, see the globe view (requires WebGL).

§ Visibility from observer

Set your observer location to see the next 7 days of passes ≥ 10°. The values pass through the URL so the page stays shareable.

No JS? Fill the form by hand. The geolocation button needs JavaScript.